TimeEDT,TemperatureF,Dew PointF,Humidity,Sea Level PressureIn,VisibilityMPH,Wind Direction,Wind SpeedMPH,Gust SpeedMPH,PrecipitationIn,Events,Conditions,WindDirDegrees,DateUTC
12:51 AM,64.0,62.1,93,30.11,6.0,Calm,Calm,-,N/A,,Clear,0,2013-10-05 04:51:00
1:51 AM,64.0,62.1,93,30.10,5.0,Calm,Calm,-,N/A,,Clear,0,2013-10-05 05:51:00
2:51 AM,63.0,61.0,93,30.11,4.0,Calm,Calm,-,N/A,,Clear,0,2013-10-05 06:51:00
3:51 AM,63.0,61.0,93,30.10,4.0,Calm,Calm,-,N/A,,Clear,0,2013-10-05 07:51:00
4:51 AM,61.0,60.1,97,30.10,3.0,Calm,Calm,-,N/A,,Clear,0,2013-10-05 08:51:00
5:51 AM,61.0,59.0,93,30.12,4.0,Calm,Calm,-,N/A,,Clear,0,2013-10-05 09:51:00
6:51 AM,61.0,59.0,93,30.13,3.0,Calm,Calm,-,N/A,,Clear,0,2013-10-05 10:51:00
7:34 AM,60.8,59.0,94,30.15,2.0,Calm,Calm,-,N/A,,Clear,0,2013-10-05 11:34:00
7:51 AM,60.1,59.0,96,30.14,1.8,Calm,Calm,-,N/A,,Clear,0,2013-10-05 11:51:00
8:02 AM,60.8,59.0,94,30.15,2.0,Calm,Calm,-,N/A,,Clear,0,2013-10-05 12:02:00
8:22 AM,62.6,60.8,94,30.15,3.0,Calm,Calm,-,N/A,,Clear,0,2013-10-05 12:22:00
8:51 AM,64.9,62.1,90,30.14,4.0,Calm,Calm,-,N/A,,Clear,0,2013-10-05 12:51:00
9:51 AM,73.0,64.9,76,30.15,6.0,Calm,Calm,-,N/A,,Haze,0,2013-10-05 13:51:00
10:51 AM,78.1,64.0,62,30.14,8.0,Calm,Calm,-,N/A,,Clear,0,2013-10-05 14:51:00
11:51 AM,81.0,61.0,50,30.14,9.0,Calm,Calm,-,N/A,,Clear,0,2013-10-05 15:51:00
12:51 PM,82.0,61.0,49,30.12,9.0,Calm,Calm,-,N/A,,Clear,0,2013-10-05 16:51:00
1:51 PM,84.0,62.1,47,30.10,9.0,Calm,Calm,-,N/A,,Clear,0,2013-10-05 17:51:00
2:51 PM,84.0,61.0,46,30.07,9.0,East,3.5,-,N/A,,Clear,90,2013-10-05 18:51:00
3:51 PM,84.9,62.1,46,30.06,9.0,Variable,3.5,-,N/A,,Partly Cloudy,0,2013-10-05 19:51:00
4:51 PM,84.9,61.0,44,30.04,9.0,ESE,4.6,-,N/A,,Overcast,110,2013-10-05 20:51:00
5:51 PM,82.0,62.1,51,30.03,9.0,Calm,Calm,-,N/A,,Clear,0,2013-10-05 21:51:00
6:51 PM,79.0,64.9,62,30.04,8.0,ESE,3.5,-,N/A,,Clear,110,2013-10-05 22:51:00
7:51 PM,73.9,66.0,76,30.04,9.0,Calm,Calm,-,N/A,,Clear,0,2013-10-05 23:51:00
8:51 PM,72.0,64.9,78,30.06,9.0,Calm,Calm,-,N/A,,Partly Cloudy,0,2013-10-06 00:51:00
9:51 PM,69.1,64.9,87,30.07,7.0,East,3.5,-,N/A,,Mostly Cloudy,90,2013-10-06 01:51:00
10:51 PM,68.0,64.0,87,30.06,8.0,Calm,Calm,-,N/A,,Clear,0,2013-10-06 02:51:00
11:51 PM,66.9,64.0,90,30.05,8.0,Calm,Calm,-,N/A,,Clear,0,2013-10-06 03:51:00